When you browse on this site, cookies collect data to enhance your experience and personalize the content and advertising you see.
Visit our Privacy Policy to learn more. By continuing to use the site, you agree to this use of cookies and data.
  • In Austria
  • List of Countries
  • For 7 days
  • Water Temperature
  • Weather Map
  • News
  • Weather Widgets
  • user-avatar
    Login

    Hourly Weather Cardonal

    Today, 17 November, Sunday

    Time Temperature Precipitation Wind Pressure Humidity
    00:00 +11°C° 0 mm 1 mps 598 mmHg 88%
    01:00 +11°C° 0 mm 1 mps 597 mmHg 87%
    02:00 +11°C° 0 mm 1 mps 597 mmHg 86%
    03:00 +11°C° 0 mm 1 mps 597 mmHg 85%
    04:00 +11°C° 0 mm 1 mps 597 mmHg 84%
    05:00 +11°C° 0 mm 1 mps 597 mmHg 83%
    06:00 +13°C° 0 mm 1 mps 598 mmHg 75%
    07:00 +14°C° 0 mm 0 mps 599 mmHg 68%
    08:00 +15°C° 0 mm 0 mps 600 mmHg 60%
    09:00 +19°C° 0 mm 1 mps 600 mmHg 54%
    10:00 +21°C° 0 mm 1 mps 601 mmHg 49%
    11:00 +21°C° 0 mm 2 mps 601 mmHg 43%
    12:00 +21°C° 0 mm 2 mps 600 mmHg 44%
    13:00 +21°C° 0 mm 3 mps 600 mmHg 45%
    14:00 +22°C° 0 mm 3 mps 599 mmHg 46%
    15:00 +20°C° 0 mm 3 mps 599 mmHg 56%
    16:00 +18°C° 0 mm 2 mps 598 mmHg 66%
    17:00 +16°C° 0 mm 2 mps 598 mmHg 75%
    18:00 +15°C° 0 mm 2 mps 598 mmHg 79%
    19:00 +15°C° 0 mm 1 mps 599 mmHg 83%
    20:00 +14°C° 0 mm 1 mps 599 mmHg 87%
    21:00 +14°C° 0 mm 1 mps 599 mmHg 85%
    22:00 +13°C° 0 mm 0 mps 599 mmHg 83%
    23:00 +13°C° 0 mm 0 mps 599 mmHg 80%

    Tomorrow, 18 November, Monday

    Time Temperature Precipitation Wind Pressure Humidity
    00:00 +13°C° 0 mm 0 mps 599 mmHg 79%
    01:00 +13°C° 0 mm 0 mps 599 mmHg 78%
    02:00 +13°C° 0 mm 0 mps 598 mmHg 76%
    03:00 +13°C° 0 mm 0 mps 598 mmHg 79%
    04:00 +12°C° 0 mm 0 mps 598 mmHg 81%
    05:00 +11°C° 0 mm 0 mps 597 mmHg 83%
    06:00 +13°C° 0 mm 0 mps 598 mmHg 77%
    07:00 +14°C° 0 mm 0 mps 599 mmHg 71%
    08:00 +18°C° 0 mm 1 mps 600 mmHg 65%
    09:00 +19°C° 0 mm 1 mps 600 mmHg 60%
    10:00 +20°C° 0 mm 1 mps 600 mmHg 55%
    11:00 +21°C° 0 mm 1 mps 600 mmHg 50%
    12:00 +20°C° 0 mm 2 mps 600 mmHg 51%
    13:00 +21°C° 0 mm 2 mps 599 mmHg 52%
    14:00 +21°C° 0 mm 3 mps 599 mmHg 53%
    15:00 +19°C° 0 mm 3 mps 598 mmHg 63%
    16:00 +17°C° 0 mm 2 mps 598 mmHg 73%
    17:00 +15°C° 0 mm 2 mps 597 mmHg 83%
    18:00 +15°C° 0 mm 1 mps 597 mmHg 84%
    19:00 +15°C° 0 mm 1 mps 598 mmHg 85%
    20:00 +14°C° 0 mm 0 mps 598 mmHg 86%
    21:00 +13°C° 0 mm 0 mps 598 mmHg 86%
    22:00 +14°C° 0 mm 1 mps 598 mmHg 86%
    23:00 +14°C° 0 mm 1 mps 598 mmHg 85%

    Day after tomorrow, 19 November, Tuesday

    Time Temperature Precipitation Wind Pressure Humidity
    00:00 +14°C° 0 mm 1 mps 597 mmHg 86%
    01:00 +14°C° 0 mm 1 mps 597 mmHg 87%
    02:00 +13°C° 0 mm 1 mps 597 mmHg 88%
    03:00 +12°C° 0 mm 0 mps 597 mmHg 88%
    04:00 +12°C° 0 mm 0 mps 597 mmHg 89%
    05:00 +11°C° 0 mm 0 mps 597 mmHg 89%
    06:00 +13°C° 0 mm 0 mps 598 mmHg 83%
    07:00 +15°C° 0 mm 0 mps 599 mmHg 76%
    08:00 +16°C° 0 mm 0 mps 600 mmHg 69%
    09:00 +20°C° 0 mm 1 mps 600 mmHg 65%
    10:00 +21°C° 0 mm 1 mps 600 mmHg 60%
    11:00 +21°C° 0 mm 2 mps 600 mmHg 55%
    12:00 +21°C° 0 mm 2 mps 600 mmHg 55%
    13:00 +21°C° 0 mm 2 mps 600 mmHg 55%
    14:00 +21°C° 0 mm 2 mps 599 mmHg 54%
    15:00 +20°C° 0 mm 2 mps 599 mmHg 64%
    16:00 +18°C° 0 mm 2 mps 598 mmHg 74%
    17:00 +17°C° 0 mm 2 mps 598 mmHg 83%
    18:00 +16°C° 0 mm 1 mps 598 mmHg 87%
    19:00 +16°C° 0 mm 1 mps 598 mmHg 90%
    20:00 +15°C° 0 mm 1 mps 598 mmHg 93%
    21:00 +14°C° 0 mm 0 mps 598 mmHg 93%
    22:00 +13°C° 0 mm 0 mps 598 mmHg 93%
    23:00 +13°C° 0 mm 0 mps 598 mmHg 92%

    20 November, Wednesday

    Time Temperature Precipitation Wind Pressure Humidity
    00:00 +13°C° 0 mm 0 mps 598 mmHg 91%
    01:00 +13°C° 0 mm 0 mps 597 mmHg 90%
    02:00 +14°C° 0 mm 1 mps 597 mmHg 90%
    03:00 +14°C° 0 mm 1 mps 597 mmHg 89%
    04:00 +14°C° 0 mm 1 mps 597 mmHg 89%
    05:00 +12°C° 0 mm 0 mps 597 mmHg 89%
    06:00 +15°C° 0 mm 1 mps 598 mmHg 81%
    07:00 +18°C° 0 mm 1 mps 599 mmHg 74%
    08:00 +19°C° 0 mm 1 mps 600 mmHg 67%
    09:00 +21°C° 0 mm 1 mps 601 mmHg 60%
    10:00 +23°C° 0 mm 1 mps 601 mmHg 54%
    11:00 +24°C° 0 mm 1 mps 601 mmHg 47%
    12:00 +25°C° 0 mm 1 mps 600 mmHg 46%
    13:00 +25°C° 0 mm 1 mps 600 mmHg 45%
    14:00 +25°C° 0 mm 2 mps 599 mmHg 43%
    15:00 +23°C° 0.2 mm 2 mps 599 mmHg 54%
    16:00 +20°C° 0.2 mm 2 mps 598 mmHg 64%
    17:00 +18°C° 0.2 mm 2 mps 598 mmHg 75%
    18:00 +19°C° 0 mm 1 mps 598 mmHg 78%
    19:00 +18°C° 0 mm 1 mps 598 mmHg 81%
    20:00 +18°C° 0 mm 1 mps 598 mmHg 83%
    21:00 +18°C° 0 mm 1 mps 599 mmHg 82%
    22:00 +15°C° 0 mm 0 mps 599 mmHg 81%
    23:00 +15°C° 0 mm 0 mps 599 mmHg 80%

    21 November, Thursday

    Time Temperature Precipitation Wind Pressure Humidity
    00:00 +15°C° 0 mm 0 mps 598 mmHg 79%
    01:00 +16°C° 0 mm 1 mps 598 mmHg 78%
    02:00 +16°C° 0 mm 1 mps 598 mmHg 78%
    03:00 +16°C° 0 mm 1 mps 598 mmHg 78%
    04:00 +15°C° 0 mm 1 mps 598 mmHg 78%
    05:00 +15°C° 0 mm 1 mps 598 mmHg 79%
    06:00 +18°C° 0 mm 1 mps 599 mmHg 73%
    07:00 +19°C° 0 mm 1 mps 600 mmHg 67%
    08:00 +21°C° 0 mm 1 mps 601 mmHg 62%
    09:00 +22°C° 0 mm 1 mps 601 mmHg 56%
    10:00 +24°C° 0 mm 1 mps 601 mmHg 50%
    11:00 +25°C° 0 mm 1 mps 602 mmHg 44%
    12:00 +25°C° 0.1 mm 1 mps 601 mmHg 44%
    13:00 +26°C° 0.1 mm 1 mps 600 mmHg 43%
    14:00 +26°C° 0.1 mm 1 mps 600 mmHg 42%
    15:00 +24°C° 0.2 mm 2 mps 599 mmHg 53%
    16:00 +21°C° 0.2 mm 2 mps 599 mmHg 64%
    17:00 +19°C° 0.2 mm 2 mps 598 mmHg 74%
    18:00 +20°C° 0 mm 1 mps 598 mmHg 76%
    19:00 +19°C° 0 mm 1 mps 599 mmHg 79%
    20:00 +17°C° 0 mm 0 mps 599 mmHg 81%
    21:00 +16°C° 0 mm 0 mps 599 mmHg 81%
    22:00 +16°C° 0 mm 0 mps 599 mmHg 80%
    23:00 +16°C° 0 mm 0 mps 598 mmHg 80%

    22 November, Friday

    Time Temperature Precipitation Wind Pressure Humidity
    00:00 +15°C° 0 mm 0 mps 598 mmHg 79%
    01:00 +16°C° 0 mm 1 mps 598 mmHg 78%
    02:00 +16°C° 0 mm 1 mps 597 mmHg 78%
    03:00 +16°C° 0 mm 1 mps 597 mmHg 78%
    04:00 +15°C° 0 mm 1 mps 597 mmHg 79%
    05:00 +15°C° 0 mm 1 mps 598 mmHg 79%
    06:00 +18°C° 0 mm 1 mps 598 mmHg 73%
    07:00 +19°C° 0 mm 1 mps 599 mmHg 68%
    08:00 +21°C° 0 mm 1 mps 600 mmHg 62%
    09:00 +22°C° 0 mm 1 mps 601 mmHg 57%
    10:00 +23°C° 0 mm 1 mps 601 mmHg 51%
    11:00 +25°C° 0 mm 1 mps 601 mmHg 46%
    12:00 +25°C° 0 mm 2 mps 600 mmHg 45%
    13:00 +25°C° 0 mm 2 mps 600 mmHg 45%
    14:00 +25°C° 0 mm 2 mps 599 mmHg 44%
    15:00 +24°C° 0.5 mm 2 mps 598 mmHg 53%
    16:00 +21°C° 0.5 mm 2 mps 598 mmHg 62%
    17:00 +19°C° 0.5 mm 2 mps 597 mmHg 71%
    18:00 +20°C° 0 mm 1 mps 598 mmHg 74%
    19:00 +19°C° 0 mm 1 mps 598 mmHg 76%
    20:00 +18°C° 0 mm 1 mps 598 mmHg 79%
    21:00 +16°C° 0 mm 0 mps 598 mmHg 80%
    22:00 +15°C° 0 mm 0 mps 598 mmHg 82%
    23:00 +15°C° 0 mm 0 mps 598 mmHg 83%
    Show more